Regional Weather Roundup
Issued by NWS

Home | Current Version | Previous Version | Text Only | Print | Product List | Glossary On
Versions: 1 2 3 4 5 6 7 8 9 10 11 12 13 14 15 16 17 18 19 20 21 22 23 24 25 26 27 28 29 30 31 32 33 34 35 36 37 38 39 40 41 42 43 44 45 46 47 48 49 50
000
ASUS43 KTOP 222308
RWRKS

WEATHER ROUNDUP FOR KANSAS
NATIONAL WEATHER SERVICE GOODLAND KS
600 PM CDT MON MAY 22 2017

NOTE:  "FAIR" INDICATES FEW OR NO CLOUDS BELOW 12,000 FEET WITH NO
SIGNIFICANT WEATHER AND/OR OBSTRUCTIONS TO VISIBILITY.

KSZ001>006-013>018-027>032-041>047-230000-
NORTHWEST KANSAS

CITY           SKY/WX    TMP DP  RH WIND       PRES   REMARKS
GOODLAND       PTSUNNY   68  43  40 N15       29.97R
HAYS           SUNNY     70  49  47 SW7       29.92F
HILL CITY      PTSUNNY   74  43  32 NW9       29.90F
RUSSELL        MOSUNNY   68  47  46 SW6       29.91F
$$

KSZ061>065-074>080-084>089-230000-
SOUTHWEST KANSAS

CITY           SKY/WX    TMP DP  RH WIND       PRES   REMARKS
DODGE CITY     CLOUDY    64  52  64 S9        29.97F
ELKHART          N/A     64  42  44 N9          N/A
GARDEN CITY    SUNNY     67  47  48 W13       29.96F
GREAT BEND     CLOUDY    69  52  54 VRB5      29.94F
LIBERAL        CLOUDY    63  51  65 CALM      30.01F
PRATT          PTSUNNY   63  52  68 NW7       29.96F
$$

KSZ066>073-081>083-090>101-230000-
SOUTHEAST KANSAS

CITY           SKY/WX    TMP DP  RH WIND       PRES   REMARKS
CHANUTE        CLOUDY    69  55  60 W6        29.95S
COFFEYVILLE    CLOUDY    73  56  54 SW8       29.93F
HUTCHINSON     CLOUDY    63  55  75 CALM      29.94F
MEDICINE LODGE   N/A     62  58  86 CALM      29.96S
NEWTON         CLOUDY    60  56  86 SE7       29.95F
PARSONS        CLOUDY    70  57  63 NW9       29.95F
WICHITA INTL   LGT RAIN  61  59  93 W8        29.94F
WICHITA JABRA  LGT RAIN  62  56  80 SW7       29.94F
WICHITA MCCONL LGT RAIN  61  57  88 W5        29.94F
WINFIELD       CLOUDY    67  52  58 SW10      29.96F
$$

KSZ007>012-019>026-033>040-048>060-102>105-230000-
NORTHEAST KANSAS

CITY           SKY/WX    TMP DP  RH WIND       PRES   REMARKS
CONCORDIA      SUNNY     67  58  72 SW8       29.89F
EMPORIA        CLOUDY    66  55  67 SW7       29.94F
LAWRENCE       LGT RAIN  61  57  87 CALM      29.96S FOG
MANHATTAN      CLOUDY    62  59  90 S7        29.91F
MARYSVILLE     CLOUDY    64  57  77 SW13      29.88F
OLATHE IND     CLOUDY    62  56  80 N10       29.96F
OLATHE EXE     CLOUDY    62  57  83 N10       29.96S
SALINA         CLOUDY    65  58  78 S9        29.93F
TOPEKA BILLARD CLOUDY    62  58  86 W5        29.94F
TOPEKA FORBES  LGT RAIN  63  58  83 NW5       29.94F
$$



USA.gov is the U.S. government's official web portal to all federal, state and local government web resources and services.